This is the latest recevied weather packets stored in our database for station/object KD4MBW. If no packets are shown the sender has not sent any weather packets the latest 10 day(s).
| Time | Temp. | Humidity | Pressure | Rain* | Wind** | Luminosity | Snow |
|---|---|---|---|---|---|---|---|
| 1777643114 | 20° C | 91% | 1013.6 hPa | 0 mm | - | 90 W/m² | - |
| 1777642811 | 20° C | 90% | 1013.4 hPa | 0 mm | - | 91 W/m² | - |
| 1777642508 | 20° C | 90% | 1013.1 hPa | 0 mm | - | 85 W/m² | - |
| 1777642204 | 20° C | 91% | 1013.4 hPa | 0 mm | - | 59 W/m² | - |
| 1777641901 | 20° C | 91% | 1013.3 hPa | 0 mm | - | 70 W/m² | - |
| 1777641596 | 20° C | 90% | 1013.4 hPa | 0 mm | - | 71 W/m² | - |
| 1777641296 | 20° C | 90% | 1013.6 hPa | 0 mm | - | 91 W/m² | - |
| 1777640993 | 20° C | 90% | 1013.3 hPa | 0 mm | - | 93 W/m² | - |
| 1777640689 | 20° C | 90% | 1013.4 hPa | 0 mm | - | 89 W/m² | - |
| 1777640385 | 20° C | 91% | 1013.2 hPa | 0 mm | - | 92 W/m² | - |
| 1777640083 | 20° C | 91% | 1013.1 hPa | 0 mm | - | 88 W/m² | - |
| 1777639779 | 20° C | 91% | 1013.1 hPa | 0 mm | - | 102 W/m² | - |
| 1777639477 | 20° C | 91% | 1013.4 hPa | 0 mm | - | 74 W/m² | - |
| 1777639173 | 20° C | 92% | 1013.4 hPa | 0 mm | - | 81 W/m² | - |
| 1777638870 | 19.44° C | 92% | 1013.1 hPa | 0 mm | - | 65 W/m² | - |
| 1777638566 | 19.44° C | 92% | 1013 hPa | 0 mm | - | 52 W/m² | - |
| 1777638262 | 19.44° C | 93% | 1013.1 hPa | 0 mm | - | 33 W/m² | - |
| 1777637958 | 19.44° C | 94% | 1013.1 hPa | 0 mm | - | 36 W/m² | - |
| 1777637655 | 19.44° C | 94% | 1013.1 hPa | 0 mm | - | 73 W/m² | - |
| 1777637352 | 19.44° C | 94% | 1013.3 hPa | 0 mm | - | 38 W/m² | - |
| 1777637049 | 19.44° C | 93% | 1013.3 hPa | 0 mm | - | 20 W/m² | - |
| 1777636744 | 19.44° C | 94% | 1013 hPa | 0 mm | - | 21 W/m² | - |
| 1777636441 | 19.44° C | 94% | 1012.9 hPa | 0 mm | - | 16 W/m² | - |
| 1777636136 | 19.44° C | 94% | 1012.7 hPa | 0 mm | - | 14 W/m² | - |
| 1777635832 | 18.89° C | 94% | 1012.6 hPa | 0 mm | - | 15 W/m² | - |
* Rain latest hour (hover to see other rain measurements)
** Current wind speed in m/s (hover to see current wind gust speed)